Location: Newark
(35.6799°N, 139.7636°E)
Time: 05:01:49
(UTC+00:00)

Vanguard 1 Rocket - Pass Details

Date: 20 December 2019
Orbit: 650 x 4226 km, 34.3° (Epoch: 19 January)

Event Time Altitude Azimuth Distance (km) Brightness Sun altitude
Rises 07:08:36 0° 221° (SW) 8,010 14.0 3.0°
Reaches altitude 10° 07:14:04 10° 216° (SW) 7,221 13.4 2.1°
Maximum altitude 07:38:46 53° 148° (SSE) 4,540 10.9 -2.3°
Drops below altitude 10° 07:57:43 10° 79° (E) 5,772 10.8 -5.8°
Enters shadow 07:59:26 - 77° (ENE) 6,052 10.9 -6.1°
